• In Russia
  • List of Countries
  • For 7 days
  • Water Temperature
  • Satellite Maps
  • Weather Map
  • Weather Widgets
  • user-avatar
    Login

    Hourly Weather Korçe

    Today, 24 February, Friday

    Time Temperature Precipitation Wind Pressure Humidity
    00:00 +2°C° 0 mm 2 mps 666 mmHg 96%
    01:00 +1°C° 0 mm 2 mps 665 mmHg 96%
    02:00 +1°C° 0 mm 2 mps 665 mmHg 96%
    03:00 +1°C° 0 mm 2 mps 665 mmHg 96%
    04:00 +1°C° 0 mm 2 mps 665 mmHg 96%
    05:00 +1°C° 0 mm 2 mps 665 mmHg 96%
    06:00 +1°C° 0 mm 2 mps 665 mmHg 95%
    07:00 +1°C° 0 mm 2 mps 665 mmHg 95%
    08:00 +3°C° 0 mm 2 mps 666 mmHg 88%
    09:00 +5°C° 0 mm 2 mps 666 mmHg 81%
    10:00 +7°C° 0 mm 2 mps 667 mmHg 74%
    11:00 +8°C° 0 mm 2 mps 667 mmHg 71%
    12:00 +9°C° 0 mm 3 mps 666 mmHg 68%
    13:00 +10°C° 0 mm 3 mps 666 mmHg 65%
    14:00 +9°C° 0 mm 3 mps 666 mmHg 69%
    15:00 +9°C° 0 mm 3 mps 666 mmHg 72%
    16:00 +8°C° 0 mm 3 mps 666 mmHg 76%
    17:00 +7°C° 0 mm 3 mps 665 mmHg 82%
    18:00 +5°C° 0 mm 3 mps 665 mmHg 88%
    19:00 +3°C° 0 mm 3 mps 665 mmHg 93%
    20:00 +3°C° 0 mm 3 mps 665 mmHg 93%
    21:00 +3°C° 0 mm 3 mps 665 mmHg 93%
    22:00 +2°C° 0 mm 3 mps 665 mmHg 93%
    23:00 +2°C° 0 mm 3 mps 664 mmHg 92%

    Tomorrow, 25 February, Saturday

    Time Temperature Precipitation Wind Pressure Humidity
    00:00 +2°C° 0 mm 3 mps 664 mmHg 91%
    01:00 +1°C° 0 mm 4 mps 664 mmHg 89%
    02:00 +2°C° 0 mm 3 mps 664 mmHg 89%
    03:00 +2°C° 0 mm 3 mps 663 mmHg 89%
    04:00 +2°C° 0 mm 3 mps 663 mmHg 89%
    05:00 +2°C° 0.3 mm 3 mps 663 mmHg 89%
    06:00 +2°C° 0.3 mm 3 mps 663 mmHg 89%
    07:00 +3°C° 0.3 mm 3 mps 663 mmHg 88%
    08:00 +4°C° 0.6 mm 3 mps 664 mmHg 85%
    09:00 +7°C° 0.6 mm 3 mps 664 mmHg 82%
    10:00 +8°C° 0.6 mm 3 mps 665 mmHg 79%
    11:00 +9°C° 0.1 mm 3 mps 665 mmHg 73%
    12:00 +10°C° 0.1 mm 3 mps 665 mmHg 67%
    13:00 +11°C° 0.1 mm 3 mps 665 mmHg 61%
    14:00 +11°C° 0.1 mm 3 mps 665 mmHg 66%
    15:00 +10°C° 0.1 mm 2 mps 665 mmHg 71%
    16:00 +9°C° 0.1 mm 2 mps 664 mmHg 76%
    17:00 +8°C° 0.1 mm 2 mps 665 mmHg 79%
    18:00 +7°C° 0.1 mm 2 mps 665 mmHg 82%
    19:00 +6°C° 0.1 mm 2 mps 665 mmHg 86%
    20:00 +6°C° 0.1 mm 2 mps 665 mmHg 86%
    21:00 +6°C° 0.1 mm 2 mps 666 mmHg 87%
    22:00 +5°C° 0.1 mm 2 mps 666 mmHg 88%
    23:00 +5°C° 0.3 mm 2 mps 666 mmHg 89%

    Day after tomorrow, 26 February, Sunday

    Time Temperature Precipitation Wind Pressure Humidity
    00:00 +5°C° 0.3 mm 2 mps 666 mmHg 90%
    01:00 +5°C° 0.3 mm 2 mps 666 mmHg 90%
    02:00 +4°C° 0.1 mm 2 mps 666 mmHg 91%
    03:00 +4°C° 0.1 mm 2 mps 666 mmHg 92%
    04:00 +3°C° 0.1 mm 2 mps 666 mmHg 92%
    05:00 +3°C° 0 mm 2 mps 666 mmHg 92%
    06:00 +3°C° 0 mm 2 mps 666 mmHg 91%
    07:00 +3°C° 0 mm 2 mps 666 mmHg 91%
    08:00 +5°C° 0 mm 2 mps 667 mmHg 85%
    09:00 +7°C° 0 mm 2 mps 668 mmHg 78%
    10:00 +9°C° 0 mm 2 mps 668 mmHg 72%
    11:00 +9°C° 0 mm 2 mps 668 mmHg 69%
    12:00 +11°C° 0 mm 1 mps 668 mmHg 66%
    13:00 +12°C° 0 mm 1 mps 668 mmHg 63%
    14:00 +11°C° 0.2 mm 1 mps 668 mmHg 67%
    15:00 +11°C° 0.2 mm 1 mps 667 mmHg 70%
    16:00 +10°C° 0.2 mm 1 mps 667 mmHg 74%
    17:00 +9°C° 0.1 mm 1 mps 667 mmHg 80%
    18:00 +7°C° 0.1 mm 1 mps 667 mmHg 86%
    19:00 +6°C° 0.1 mm 1 mps 666 mmHg 92%
    20:00 +6°C° 0 mm 1 mps 667 mmHg 92%
    21:00 +5°C° 0 mm 1 mps 667 mmHg 93%
    22:00 +5°C° 0 mm 1 mps 667 mmHg 93%
    23:00 +5°C° 0 mm 1 mps 666 mmHg 93%

    27 February, Monday

    Time Temperature Precipitation Wind Pressure Humidity
    00:00 +4°C° 0 mm 1 mps 666 mmHg 94%
    01:00 +4°C° 0 mm 1 mps 666 mmHg 94%
    02:00 +4°C° 0 mm 1 mps 666 mmHg 94%
    03:00 +3°C° 0 mm 1 mps 665 mmHg 94%
    04:00 +3°C° 0 mm 1 mps 665 mmHg 93%
    05:00 +3°C° 0 mm 1 mps 665 mmHg 93%
    06:00 +4°C° 0 mm 1 mps 666 mmHg 92%
    07:00 +4°C° 0 mm 1 mps 666 mmHg 91%
    08:00 +6°C° 0 mm 1 mps 666 mmHg 82%
    09:00 +9°C° 0 mm 1 mps 667 mmHg 74%
    10:00 +10°C° 0 mm 0 mps 668 mmHg 66%
    11:00 +12°C° 0 mm 1 mps 668 mmHg 63%
    12:00 +12°C° 0 mm 1 mps 667 mmHg 61%
    13:00 +13°C° 0 mm 1 mps 667 mmHg 58%
    14:00 +12°C° 0.1 mm 1 mps 667 mmHg 63%
    15:00 +12°C° 0.1 mm 1 mps 667 mmHg 67%
    16:00 +11°C° 0.1 mm 1 mps 666 mmHg 72%
    17:00 +9°C° 0 mm 1 mps 666 mmHg 79%
    18:00 +8°C° 0 mm 1 mps 666 mmHg 86%
    19:00 +6°C° 0 mm 1 mps 666 mmHg 93%
    20:00 +6°C° 0 mm 1 mps 666 mmHg 94%
    21:00 +5°C° 0 mm 1 mps 666 mmHg 95%
    22:00 +5°C° 0 mm 1 mps 666 mmHg 95%
    23:00 +5°C° 0 mm 1 mps 665 mmHg 96%

    28 February, Tuesday

    Time Temperature Precipitation Wind Pressure Humidity
    00:00 +4°C° 0 mm 1 mps 665 mmHg 96%
    01:00 +4°C° 0 mm 1 mps 665 mmHg 96%
    02:00 +4°C° 0 mm 1 mps 665 mmHg 96%
    03:00 +4°C° 0 mm 1 mps 665 mmHg 96%
    04:00 +4°C° 0 mm 1 mps 664 mmHg 96%
    05:00 +4°C° 0 mm 1 mps 665 mmHg 96%
    06:00 +4°C° 0 mm 1 mps 665 mmHg 96%
    07:00 +4°C° 0 mm 1 mps 665 mmHg 95%
    08:00 +6°C° 0 mm 1 mps 666 mmHg 86%
    09:00 +8°C° 0 mm 1 mps 666 mmHg 77%
    10:00 +10°C° 0 mm 1 mps 667 mmHg 68%
    11:00 +11°C° 0 mm 1 mps 667 mmHg 66%
    12:00 +12°C° 0 mm 2 mps 666 mmHg 64%
    13:00 +12°C° 0 mm 2 mps 666 mmHg 62%
    14:00 +12°C° 0.1 mm 2 mps 666 mmHg 66%
    15:00 +10°C° 0.1 mm 2 mps 666 mmHg 70%
    16:00 +10°C° 0.1 mm 2 mps 665 mmHg 73%
    17:00 +8°C° 0 mm 2 mps 665 mmHg 80%
    18:00 +7°C° 0 mm 2 mps 665 mmHg 87%
    19:00 +5°C° 0 mm 2 mps 665 mmHg 94%
    20:00 +5°C° 0 mm 2 mps 665 mmHg 95%
    21:00 +5°C° 0 mm 2 mps 665 mmHg 96%
    22:00 +5°C° 0 mm 2 mps 665 mmHg 96%
    23:00 +5°C° 0 mm 2 mps 665 mmHg 96%

    1 March, Wednesday

    Time Temperature Precipitation Wind Pressure Humidity
    00:00 +5°C° 0 mm 2 mps 665 mmHg 97%
    01:00 +4°C° 0 mm 2 mps 665 mmHg 97%
    02:00 +4°C° 0 mm 2 mps 664 mmHg 97%
    03:00 +4°C° 0 mm 2 mps 664 mmHg 97%
    04:00 +4°C° 0 mm 2 mps 664 mmHg 97%
    05:00 +4°C° 0 mm 2 mps 664 mmHg 96%
    06:00 +4°C° 0 mm 2 mps 664 mmHg 96%
    07:00 +5°C° 0 mm 1 mps 665 mmHg 95%
    08:00 +6°C° 0 mm 2 mps 665 mmHg 87%
    09:00 +7°C° 0 mm 2 mps 666 mmHg 78%
    10:00 +9°C° 0 mm 2 mps 666 mmHg 69%
    11:00 +9°C° 0 mm 2 mps 666 mmHg 66%
    12:00 +10°C° 0 mm 2 mps 666 mmHg 63%
    13:00 +12°C° 0 mm 2 mps 666 mmHg 59%
    14:00 +10°C° 0 mm 2 mps 666 mmHg 62%
    15:00 +10°C° 0 mm 2 mps 666 mmHg 65%
    16:00 +10°C° 0 mm 2 mps 666 mmHg 68%
    17:00 +8°C° 0 mm 2 mps 666 mmHg 76%
    18:00 +7°C° 0 mm 1 mps 666 mmHg 84%
    19:00 +5°C° 0 mm 1 mps 666 mmHg 92%
    20:00 +5°C° 0 mm 1 mps 666 mmHg 93%
    21:00 +4°C° 0 mm 1 mps 666 mmHg 93%
    22:00 +4°C° 0 mm 1 mps 666 mmHg 93%
    23:00 +4°C° 0 mm 1 mps 666 mmHg 93%
    Show more